Effective Sunday, March 17, 2024, the National Weather Service National Data Buoy Center will discontinue its Dial-A-Buoy Interactive Voice Response system. For more information, see Service Change Notice 24-06 (PDF).

Station DPXC1 - 9415141 - Davis Point, San Pablo Bay, CA Image indicating link to RSS feed of recent meteorological observations for station DPXC1


Conditions at DPXC1 as of
(5:48 am PST)
1348 GMT on 02/23/2024:
     

Click on the graph icon in the table below to see a time series plot of the last five days of that observation.

5-day plot - Wind Direction Wind Direction (WDIR): E ( 90 deg true )
5-day plot - Wind Speed Wind Speed (WSPD): 6.0 kts
5-day plot - Wind Gust Wind Gust (GST): 8.0 kts
5-day plot - Atmospheric Pressure Atmospheric Pressure (PRES):30.18 in
5-day plot - Air Temperature Air Temperature (ATMP): 50.2 °F
5-day plot - Wind Chill Wind Chill (CHILL): 47.5 °F
5-day plot - Wind Speed at 10 Meters Wind Speed at 10 meters (WSPD10M): 7.8 kts
5-day plot - Wind Speed at 20 Meters Wind Speed at 20 meters (WSPD20M): 7.8 kts
5-day plot -  Wind Speed, Wind Gust and Atmospheric Pressure Combined plot of Wind Speed, Gust, and Air Pressure
NOS Water Level Observation Network Water Level
Previous observations
TIME
(PST)
5-day plot - Wind Direction
WDIR
 
5-day plot - Wind Speed
WSPD
kts
5-day plot - Wind Gust
GST
kts
5-day plot - Wave Height
WVHT
ft
5-day plot - Dominant Wave Period
DPD
sec
5-day plot - Average Wave Period
APD
sec
5-day plot - Mean Wave Direction
MWD
 
5-day plot - Atmospheric Pressure
PRES
in
5-day plot - Pressure Tendency
PTDY
in
5-day plot - Air Temperature
ATMP
°F
5-day plot - Water Temperature
WTMP
°F
5-day plot - Dew Point
DEWP
°F
5-day plot - Salinity
SAL
psu
5-day plot - Visibility
VIS
nmi
5-day plot - Tide (above MLLW)
TIDE
ft
2024-02-23 05:42 am E 7.0 8.0----30.18- 50.2-----
2024-02-23 05:36 am E 7.0 8.0----30.18- 50.2-----
2024-02-23 05:30 am E 6.0 8.0----30.18- 50.4-----
2024-02-23 05:24 am E 6.0 7.0----30.18- 50.2-----
2024-02-23 05:18 am E 7.0 8.0----30.18- 50.2-----
2024-02-23 05:12 am E 7.0 8.0----30.18- 50.0-----
2024-02-23 05:06 am E 6.0 7.0----30.18- 49.8-----
2024-02-23 05:00 am E 5.1 7.0----30.18-0.04 50.0-----
2024-02-23 04:54 am E 6.0 8.0----30.18- 50.0-----
2024-02-23 04:48 am E 6.0 8.0----30.18- 50.0-----
2024-02-23 04:42 am E 6.0 7.0----30.18- 50.0-----
2024-02-23 04:36 am E 5.1 7.0----30.18- 50.2-----
2024-02-23 04:30 am E 6.0 7.0----30.18- 50.4-----
2024-02-23 04:24 am E 5.1 6.0----30.19- 50.4-----
2024-02-23 04:18 am E 5.1 6.0----30.19- 50.4-----
2024-02-23 04:12 am E 5.1 6.0----30.19- 50.5-----
2024-02-23 04:06 am E 4.1 6.0----30.19- 50.7-----
2024-02-23 04:00 am E 5.1 6.0----30.19-0.05 50.7-----
2024-02-23 03:54 am E 5.1 7.0----30.19- 50.7-----
2024-02-23 03:48 am E 5.1 7.0----30.19- 50.7-----
2024-02-23 03:42 am E 5.1 7.0----30.19- 50.9-----
2024-02-23 03:36 amENE 6.0 7.0----30.20- 50.9-----
2024-02-23 03:30 amENE 6.0 7.0----30.19- 50.7-----
2024-02-23 03:24 am E 6.0 8.0----30.19- 50.7-----
2024-02-23 03:18 am E 7.0 8.0----30.19- 50.7-----
2024-02-23 03:12 am E 7.0 8.0----30.20- 50.9-----
2024-02-23 03:06 am E 5.1 7.0----30.20- 50.9-----
2024-02-23 03:00 am E 6.0 7.0----30.20-0.04 50.9-----
2024-02-23 02:54 am E 6.0 7.0----30.21- 50.7-----
2024-02-23 02:48 am E 5.1 6.0----30.21- 50.7-----
2024-02-23 02:42 am E 5.1 6.0----30.21- 51.1-----
2024-02-23 02:36 amENE 4.1 5.1----30.21- 51.1-----
2024-02-23 02:30 am E 4.1 6.0----30.22- 50.7-----
2024-02-23 02:24 am E 4.1 5.1----30.22- 50.7-----
2024-02-23 02:18 am E 5.1 6.0----30.22- 50.9-----
2024-02-23 02:12 am E 5.1 7.0----30.22- 51.1-----
2024-02-23 02:06 amENE 5.1 6.0----30.22- 51.3-----
2024-02-23 02:00 am E 5.1 7.0----30.22-0.01 51.1-----
2024-02-23 01:54 amENE 5.1 6.0----30.22- 51.3-----
2024-02-23 01:48 amENE 5.1 6.0----30.23- 51.3-----
2024-02-23 01:42 amENE 5.1 5.1----30.23- 51.4-----
2024-02-23 01:36 amENE 4.1 5.1----30.23- 51.3-----
2024-02-23 01:30 amENE 5.1 6.0----30.23- 51.4-----
2024-02-23 01:24 amENE 5.1 5.1----30.23- 51.4-----
2024-02-23 01:18 am E 2.9 4.1----30.23- 51.1-----
2024-02-23 01:12 am E 2.9 4.1----30.24- 51.3-----
2024-02-23 01:06 am E 2.9 5.1----30.24- 51.8-----
2024-02-23 01:00 am E 4.1 5.1----30.24+0.00 51.8-----
2024-02-23 12:54 amENE 4.1 5.1----30.24- 52.0-----
2024-02-23 12:48 amENE 2.9 4.1----30.24- 52.0-----
2024-02-23 12:42 am NE 1.9 2.9----30.24- 52.0-----
2024-02-23 12:36 am- 0.0 1.0----30.24- 51.8-----
2024-02-23 12:30 am- 0.0 1.9----30.24- 52.0-----
2024-02-23 12:24 am E 2.9 2.9----30.24- 52.2-----
2024-02-23 12:18 am E 1.9 2.9----30.24- 52.0-----
2024-02-23 12:12 amENE 1.9 2.9----30.24- 52.0-----
2024-02-23 12:06 amENE 1.9 2.9----30.24- 52.2-----
2024-02-23 12:00 am E 1.9 1.9----30.24+0.01 52.2-----
2024-02-22 11:54 pm- 0.0 1.0----30.24- 52.0-----
2024-02-22 11:48 pm- 0.0 2.9----30.24- 52.0-----
2024-02-22 11:42 pm E 2.9 5.1----30.24- 52.9-----
2024-02-22 11:36 pm E 5.1 5.1----30.24- 52.9-----
2024-02-22 11:30 pm E 4.1 4.1----30.23- 52.7-----
2024-02-22 11:24 pmENE 2.9 2.9----30.24- 53.1-----
2024-02-22 11:18 pmENE 1.9 4.1----30.24- 52.9-----
2024-02-22 11:12 pmENE 1.9 2.9----30.24- 52.7-----
2024-02-22 11:06 pm E 2.9 2.9----30.24- 52.3-----
2024-02-22 11:00 pm E 2.9 2.9----30.24+0.02 52.3-----
2024-02-22 10:54 pm E 2.9 4.1----30.24- 52.7-----
2024-02-22 10:48 pm E 2.9 2.9----30.24- 52.9-----
2024-02-22 10:42 pmENE 1.9 1.9----30.24- 52.9-----
2024-02-22 10:36 pmENE 1.9 2.9----30.24- 52.9-----
2024-02-22 10:30 pm NE 1.9 2.9----30.24- 52.5-----
2024-02-22 10:24 pm- 0.0 0.0----30.24- 52.5-----
2024-02-22 10:18 pm- 0.0 1.9----30.24- 52.5-----
2024-02-22 10:12 pmENE 1.0 1.9----30.24- 52.7-----
2024-02-22 10:06 pm- 0.0 1.9----30.24- 52.7-----
2024-02-22 10:00 pm E 1.9 1.9----30.24+0.03 53.1-----
2024-02-22 09:54 pm E 1.0 1.9----30.24- 53.1-----
2024-02-22 09:48 pmESE 1.0 1.9----30.24- 53.2-----
2024-02-22 09:42 pmESE 1.0 2.9----30.24- 53.2-----
2024-02-22 09:36 pm E 1.9 4.1----30.23- 53.6-----
2024-02-22 09:30 pm E 4.1 5.1----30.23- 53.6-----
2024-02-22 09:24 pm- 0.0 1.9----30.23- 53.4-----
2024-02-22 09:18 pmESE 1.9 2.9----30.23- 53.8-----
2024-02-22 09:12 pmESE 1.9 4.1----30.23- 54.1-----
2024-02-22 09:06 pmESE 1.9 4.1----30.23- 54.5-----
2024-02-22 09:00 pmSSE 1.0 4.1----30.23+0.03 54.7-----
2024-02-22 08:54 pmESE 2.9 5.1----30.23- 54.7-----
2024-02-22 08:48 pm E 4.1 5.1----30.23- 54.3-----
2024-02-22 08:42 pm E 5.1 7.0----30.23- 54.5-----
2024-02-22 08:36 pm E 6.0 7.0----30.23- 54.9-----
2024-02-22 08:30 pm E 5.1 6.0----30.22- 55.2-----
2024-02-22 08:24 pm E 5.1 6.0----30.22- 55.2-----
2024-02-22 08:18 pm E 6.0 6.0----30.22- 55.4-----
2024-02-22 08:12 pm E 5.1 6.0----30.22- 55.2-----
2024-02-22 08:06 pm E 4.1 6.0----30.22- 55.6-----
2024-02-22 08:00 pm E 5.1 6.0----30.22+0.01 55.2-----
2024-02-22 07:54 pm E 6.0 7.0----30.22- 55.0-----
2024-02-22 07:48 pm E 6.0 7.0----30.22- 55.2-----
2024-02-22 07:42 pm E 6.0 7.0----30.22- 55.8-----
2024-02-22 07:36 pm E 6.0 7.0----30.22- 55.9-----
2024-02-22 07:30 pm E 6.0 7.0----30.21- 56.5-----
2024-02-22 07:24 pm E 7.0 7.0----30.21- 56.3-----
2024-02-22 07:18 pm E 6.0 7.0----30.21- 56.5-----
2024-02-22 07:12 pm E 6.0 7.0----30.21- 56.8-----
2024-02-22 07:06 pm E 6.0 8.0----30.21- 56.8-----
2024-02-22 07:00 pm E 7.0 8.9----30.21-0.01 57.0-----
2024-02-22 06:54 pm E 8.0 9.9----30.20- 57.2-----
2024-02-22 06:48 pm E 8.0 9.9----30.20- 57.6-----
2024-02-22 06:42 pm E 8.9 9.9----30.20- 57.9-----
2024-02-22 06:36 pm E 8.0 9.9----30.20- 57.9-----
2024-02-22 06:30 pmESE 8.0 8.9----30.20- 57.9-----
2024-02-22 06:24 pm E 6.0 7.0----30.20- 57.6-----
2024-02-22 06:18 pm E 6.0 7.0----30.20- 57.6-----
2024-02-22 06:12 pm E 6.0 7.0----30.20- 57.9-----
2024-02-22 06:06 pm E 6.0 8.0----30.20- 57.9-----
2024-02-22 06:00 pm E 7.0 8.0----30.20-0.03 57.6-----
2024-02-22 05:54 pm E 5.1 7.0----30.20- 58.5-----
2024-02-22 05:48 pm E 6.0 8.0----30.21- 58.6-----
2024-02-22 05:42 pm E 6.0 7.0----30.21- 58.8-----
2024-02-22 05:36 pm E 6.0 8.0----30.21- 59.2-----
2024-02-22 05:30 pm E 6.0 8.0----30.21- 59.2-----
2024-02-22 05:24 pmESE 7.0 8.0----30.21- 59.4-----
2024-02-22 05:18 pmESE 6.0 8.0----30.21- 59.4-----
2024-02-22 05:12 pmESE 7.0 8.0----30.21- 59.5-----
2024-02-22 05:06 pmESE 7.0 8.9----30.20- 59.7-----
2024-02-22 05:00 pm E 8.0 8.9----30.21-0.04 59.9-----
2024-02-22 04:54 pm E 7.0 8.9----30.20- 60.1-----
2024-02-22 04:48 pm E 7.0 8.9----30.20- 60.1-----
2024-02-22 04:42 pmESE 7.0 9.9----30.20- 60.1-----
2024-02-22 04:36 pm E 7.0 9.9----30.20- 60.1-----
2024-02-22 04:30 pm E 7.0 8.9----30.20- 60.1-----
2024-02-22 04:24 pm E 8.0 8.0----30.20- 60.1-----
2024-02-22 04:18 pm E 7.0 8.0----30.20- 59.9-----
2024-02-22 04:12 pm E 7.0 8.0----30.21- 59.9-----
2024-02-22 04:06 pm E 7.0 8.0----30.21- 59.7-----
2024-02-22 04:00 pm E 7.0 8.9----30.22-0.04 59.7-----
2024-02-22 03:54 pm E 7.0 8.9----30.22- 59.7-----
2024-02-22 03:48 pm E 7.0 8.0----30.22- 59.5-----
2024-02-22 03:42 pm E 6.0 7.0----30.22- 59.5-----
2024-02-22 03:36 pm E 6.0 8.0----30.22- 59.4-----
2024-02-22 03:30 pmENE 5.1 7.0----30.22-------
2024-02-22 03:24 pm E 4.1 6.0----30.23-------
2024-02-22 03:18 pm E 5.1 6.0----30.23- 59.2-----
2024-02-22 03:12 pm E 5.1 6.0----30.23- 58.8-----
2024-02-22 03:06 pm E 5.1 5.1----30.23- 58.6-----
2024-02-22 03:00 pm E 5.1 6.0----30.23-0.06------
2024-02-22 02:54 pm E 5.1 6.0----30.23-------
2024-02-22 02:48 pm E 5.1 7.0----30.23- 58.3-----
2024-02-22 02:42 pm E 6.0 7.0----30.23- 58.3-----
2024-02-22 02:36 pm E 4.1 5.1----30.23- 58.6-----
2024-02-22 02:30 pm E 5.1 6.0----30.24- 58.1-----
2024-02-22 02:24 pm E 4.1 5.1----30.24- 57.9-----
2024-02-22 02:18 pm E 4.1 5.1----30.24- 57.7-----
2024-02-22 02:12 pm E 4.1 4.1----30.24- 57.2-----
2024-02-22 02:06 pm E 4.1 5.1----30.24- 57.4-----
2024-02-22 02:00 pm E 5.1 5.1----30.24-0.05 57.0-----
2024-02-22 01:54 pm E 5.1 6.0----30.24- 56.7-----
2024-02-22 01:48 pm E 5.1 6.0----30.25- 56.7-----
2024-02-22 01:42 pm E 6.0 6.0----30.25- 56.7-----
2024-02-22 01:36 pm E 5.1 6.0----30.25- 56.5-----
2024-02-22 01:30 pmENE 5.1 6.0----30.25- 56.1-----
2024-02-22 01:24 pm E 6.0 7.0----30.25- 55.9-----
2024-02-22 01:18 pm E 6.0 7.0----30.25- 55.8-----
2024-02-22 01:12 pm E 6.0 7.0----30.26- 55.4-----
2024-02-22 01:06 pm E 7.0 8.0----30.26- 55.0-----
2024-02-22 01:00 pm E 8.0 8.9----30.26-0.05 54.7-----
2024-02-22 12:54 pm E 8.0 8.9----30.26- 54.3-----
2024-02-22 12:48 pm E 8.0 8.9----30.27- 54.3-----
2024-02-22 12:42 pm E 8.0 9.9----30.27- 54.0-----
2024-02-22 12:36 pm E 8.9 9.9----30.27- 54.0-----
2024-02-22 12:30 pm E 8.9 9.9----30.27- 53.8-----
2024-02-22 12:24 pm E 8.0 8.9----30.28- 53.6-----
2024-02-22 12:18 pm E 8.9 9.9----30.28- 53.6-----
2024-02-22 12:12 pm E 8.0 8.9----30.28- 53.8-----
2024-02-22 12:06 pm E 7.0 8.0----30.28- 53.6-----
2024-02-22 12:00 pm E 7.0 9.9----30.28-0.01 53.4-----
2024-02-22 11:54 am E 9.9 11.1----30.28- 52.9-----
2024-02-22 11:48 am E 9.9 11.1----30.28- 52.9-----
2024-02-22 11:42 am E 8.9 11.1----30.29- 52.5-----
2024-02-22 11:36 am E 9.9 11.1----30.29- 51.8-----
2024-02-22 11:30 am E 9.9 11.1----30.29- 50.9-----
2024-02-22 11:24 am E 11.1 12.0----30.29- 50.2-----
2024-02-22 11:18 am E 11.1 12.0----30.29- 50.4-----
2024-02-22 11:12 am E 11.1 12.0----30.30- 50.0-----
2024-02-22 11:06 am E 9.9 11.1----30.29- 50.0-----
2024-02-22 11:00 am E 8.9 11.1----30.30+0.02 49.6-----
2024-02-22 10:54 am E 9.9 11.1----30.29- 49.5-----
2024-02-22 10:48 amENE 8.0 8.9----30.29- 49.3-----
2024-02-22 10:42 amENE 6.0 7.0----30.30- 48.7-----
2024-02-22 10:36 amENE 6.0 7.0----30.30- 48.6-----
2024-02-22 10:30 amENE 6.0 7.0----30.30- 48.4-----
2024-02-22 10:24 amENE 6.0 8.0----30.30- 47.7-----
2024-02-22 10:18 amENE 2.9 5.1----30.31- 47.5-----
2024-02-22 10:12 am NE 1.0 1.9----30.31- 46.9-----
2024-02-22 10:06 am NE 1.9 2.9----30.31- 46.2-----
2024-02-22 10:00 amNNE 1.9 2.9----30.31+0.05 46.6-----
2024-02-22 09:54 amENE 2.9 2.9----30.30- 46.2-----
2024-02-22 09:48 am NE 2.9 4.1----30.30- 46.0-----
2024-02-22 09:42 amNNE 1.0 2.9----30.30- 46.0-----
2024-02-22 09:36 am N 1.9 1.9----30.31- 46.0-----
2024-02-22 09:30 amNNW 1.0 1.9----30.31- 45.9-----
2024-02-22 09:24 am NW 1.0 2.9----30.31- 45.7-----
2024-02-22 09:18 amNNW 1.9 2.9----30.30- 45.9-----
2024-02-22 09:12 amNNW 1.9 2.9----30.30- 45.7-----
2024-02-22 09:06 am N 1.9 2.9----30.30- 46.0-----
2024-02-22 09:00 am N 1.9 2.9----30.30+0.05 45.7-----
2024-02-22 08:54 am NW 1.9 2.9----30.30- 46.0-----
2024-02-22 08:48 amWNW 1.9 2.9----30.29- 46.4-----
2024-02-22 08:42 am NW 1.9 2.9----30.29- 46.4-----
2024-02-22 08:36 am NW 2.9 4.1----30.29- 46.2-----
2024-02-22 08:30 am NW 2.9 4.1----30.29- 46.2-----
2024-02-22 08:24 amNNW 1.9 2.9----30.28- 46.6-----
2024-02-22 08:18 am- 0.0 1.0----30.28- 46.2-----
2024-02-22 08:12 am- 0.0 1.0----30.28- 46.4-----
2024-02-22 08:06 am E 1.0 1.9----30.28- 46.0-----
2024-02-22 08:00 am- 0.0 1.9----30.28+0.04 46.4-----
2024-02-22 07:54 am- 0.0 1.0----30.27- 46.2-----
2024-02-22 07:48 am- 0.0 1.0----30.27-------
2024-02-22 07:42 am- 0.0 1.9----30.27-------
2024-02-22 07:36 am- 0.0 1.9----30.27-------
2024-02-22 07:30 am E 1.9 2.9----30.27- 46.2-----
2024-02-22 07:24 amNNE 1.9 2.9----30.27- 46.2-----
2024-02-22 07:18 amNNE 2.9 5.1----30.26- 46.0-----
2024-02-22 07:12 am NE 4.1 5.1----30.26- 46.2-----
2024-02-22 07:06 am NE 2.9 4.1----30.25- 46.2-----
2024-02-22 07:00 amENE 2.9 5.1----30.25+0.03 46.4-----
2024-02-22 06:54 amENE 2.9 4.1----30.25- 46.2-----
2024-02-22 06:48 am NE 2.9 5.1----30.26- 46.4-----
2024-02-22 06:42 am NE 2.9 4.1----30.26- 46.6-----
2024-02-22 06:36 amENE 2.9 4.1----30.25- 47.1-----
2024-02-22 06:30 am SE 1.9 4.1----30.25- 46.8-----
2024-02-22 06:24 am SE 2.9 4.1----30.25- 46.9-----
2024-02-22 06:18 amENE 1.0 2.9----30.25- 47.7-----
2024-02-22 06:12 am NE 1.0 1.9----30.25- 47.5-----
2024-02-22 06:06 am- 0.0 1.9----30.25- 47.3-----
2024-02-22 06:00 amSSE 1.0 1.9----30.25+0.03 47.1-----
2024-02-22 05:54 amSSE 1.9 2.9----30.24- 46.9-----